Change the Weather History Date:

Monday, December 2, 2013

  Actual Average Record
Temperature  
Mean Temperature 55 °F -  
Max Temperature 71 °F 68 °F 82 °F (1958)
Min Temperature 39 °F 41 °F 15 °F (2011)
Degree Days  
Heating Degree Days 10    
Growing Degree Days 5 (Base 50)    
Moisture  
Dew Point 43 °F    
Average Humidity 69    
Maximum Humidity 88    
Minimum Humidity 29    
Precipitation  
Precipitation 0.00 in - - ()
Sea Level Pressure  
Sea Level Pressure 30.05 in    
Wind  
Wind Speed 6 mph (West)    
Max Wind Speed 16 mph    
Max Gust Speed 16 mph    
Visibility 10 miles    
Events      
Averages and records for this station are not official NWS values.
T = Trace of Precipitation, MM = Missing Value Source: NWS Daily Summary

Daily Weather History Graph

Daily Weather History Graph

Search for Another Location

Airport or City:

Trip Planner

Search our weather history database for the weather conditions in past years. The results will help you decide how hot, cold, wet, or windy it might be!

Date:

Astronomy

Dec. 02, 2013 Rise Set
Actual Time 6:51 AM PST 4:50 PM PST
Civil Twilight 6:24 AM PST 5:18 PM PST
Nautical Twilight 5:53 AM PST 5:49 PM PST
Astronomical Twilight 5:22 AM PST 6:20 PM PST
Moon 6:24 AM PST (12/2) 4:57 PM PST (12/2)
Length of Visible Light 10h 54m
Length of Day
9h 59m
Waning Crescent, 0% of the Moon is Illuminated
Dec 2
Waning Crescent
Dec 2
New
Dec 9
First Quarter
Dec 17
Full
Dec 25
Last Quarter

Hourly Weather History & Observations

Time (PST) Temp. Windchill Dew Point Humidity Pressure Visibility Wind Dir Wind Speed Gust Speed Precip Events Conditions
12:15 AM 46.4 °F 44.3 °F 39.2 °F 76% 30.15 in 10.0 mi East 4.6 mph - N/A   Clear
12:35 AM 46.4 °F 44.3 °F 39.2 °F 76% 30.14 in 10.0 mi East 4.6 mph - N/A   Clear
12:55 AM 44.6 °F 41.4 °F 37.4 °F 76% 30.13 in 10.0 mi East 5.8 mph - N/A   Clear
1:15 AM 44.6 °F - 37.4 °F 76% 30.12 in 10.0 mi Calm Calm - N/A   Clear
1:35 AM 42.8 °F 40.1 °F 37.4 °F 81% 30.12 in 10.0 mi ENE 4.6 mph - N/A   Clear
1:55 AM 42.8 °F 39.3 °F 35.6 °F 76% 30.12 in 10.0 mi ENE 5.8 mph - N/A   Clear
2:15 AM 42.8 °F 41.1 °F 35.6 °F 76% 30.12 in 10.0 mi East 3.5 mph - N/A   Clear
2:35 AM 41.0 °F - 35.6 °F 81% 30.12 in 10.0 mi Calm Calm - N/A   Clear
2:55 AM 41.0 °F - 35.6 °F 81% 30.12 in 10.0 mi Calm Calm - N/A   Clear
3:15 AM 41.0 °F 37.1 °F 35.6 °F 81% 30.11 in 10.0 mi ESE 5.8 mph - N/A   Clear
3:35 AM 41.0 °F 38.0 °F 35.6 °F 81% 30.11 in 10.0 mi ENE 4.6 mph - N/A   Clear
3:55 AM 39.2 °F 33.6 °F 35.6 °F 87% 30.10 in 10.0 mi East 8.1 mph - N/A   Clear
4:15 AM 42.8 °F 38.6 °F 35.6 °F 76% 30.09 in 10.0 mi East 6.9 mph - N/A   Clear
4:35 AM 44.6 °F 40.2 °F 35.6 °F 71% 30.10 in 10.0 mi ENE 8.1 mph - N/A   Clear
4:55 AM 42.8 °F 38.0 °F 33.8 °F 70% 30.10 in 10.0 mi East 8.1 mph - N/A   Clear
5:15 AM 44.6 °F 41.4 °F 35.6 °F 71% 30.11 in 10.0 mi East 5.8 mph - N/A   Clear
5:35 AM 42.8 °F 38.0 °F 33.8 °F 70% 30.11 in 10.0 mi East 8.1 mph - N/A   Clear
5:55 AM 42.8 °F 38.0 °F 33.8 °F 70% 30.11 in 10.0 mi East 8.1 mph - N/A   Clear
6:15 AM 42.8 °F 38.0 °F 33.8 °F 70% 30.11 in 10.0 mi East 8.1 mph - N/A   Clear
6:35 AM 42.8 °F 37.5 °F 33.8 °F 70% 30.10 in 10.0 mi East 9.2 mph - N/A   Clear
6:55 AM 41.0 °F 35.8 °F 33.8 °F 76% 30.09 in 10.0 mi East 8.1 mph - N/A   Clear
7:15 AM 41.0 °F 38.0 °F 33.8 °F 76% 30.09 in 10.0 mi ESE 4.6 mph - N/A   Clear
7:35 AM 44.6 °F 42.2 °F 33.8 °F 66% 30.09 in 10.0 mi East 4.6 mph - N/A   Clear
7:55 AM 46.4 °F - 33.8 °F 62% 30.09 in 10.0 mi Calm Calm - N/A   Clear
8:15 AM 46.4 °F - 35.6 °F 66% 30.10 in 10.0 mi Calm Calm - N/A   Clear
8:35 AM 48.2 °F - 35.6 °F 62% 30.10 in 10.0 mi East 5.8 mph - N/A   Clear
8:55 AM 51.8 °F - 37.4 °F 58% 30.10 in 10.0 mi Calm Calm - N/A   Clear
9:15 AM 55.4 °F - 35.6 °F 47% 30.09 in 10.0 mi East 6.9 mph - N/A   Clear
9:35 AM 57.2 °F - 35.6 °F 44% 30.10 in 10.0 mi ESE 5.8 mph - N/A   Clear
9:55 AM 59.0 °F - 35.6 °F 42% 30.10 in 10.0 mi ESE 5.8 mph - N/A   Clear
10:15 AM 62.6 °F - 35.6 °F 37% 30.10 in 10.0 mi ESE 4.6 mph - N/A   Clear
10:35 AM 64.4 °F - 37.4 °F 37% 30.10 in 10.0 mi ENE 4.6 mph - N/A   Clear
10:55 AM 66.2 °F - 37.4 °F 35% 30.11 in 10.0 mi Calm Calm - N/A   Clear
11:15 AM 69.8 °F - 37.4 °F 31% 30.10 in 10.0 mi SE 3.5 mph - N/A   Clear
11:35 AM 69.8 °F - 37.4 °F 31% 30.08 in 10.0 mi Calm Calm - N/A   Clear
11:55 AM 69.8 °F - 41.0 °F 35% 30.07 in 10.0 mi SW 4.6 mph - N/A   Clear
12:15 PM 71.6 °F - 37.4 °F 29% 30.06 in 10.0 mi West 8.1 mph - N/A   Clear
12:35 PM 69.8 °F - 44.6 °F 40% 30.05 in 10.0 mi West 15.0 mph - N/A   Clear
12:55 PM 68.0 °F - 44.6 °F 43% 30.04 in 10.0 mi West 13.8 mph - N/A   Clear
1:15 PM 66.2 °F - 50.0 °F 56% 30.03 in 10.0 mi West 16.1 mph - N/A   Clear
1:35 PM 64.4 °F - 51.8 °F 64% 30.03 in 10.0 mi West 15.0 mph - N/A   Clear
1:55 PM 64.4 °F - 53.6 °F 68% 30.02 in 10.0 mi West 16.1 mph - N/A   Clear
2:15 PM 64.4 °F - 53.6 °F 68% 30.01 in 10.0 mi WSW 12.7 mph - N/A   Clear
2:35 PM 62.6 °F - 51.8 °F 68% 30.00 in 10.0 mi WSW 12.7 mph - N/A   Clear
2:55 PM 62.6 °F - 53.6 °F 72% 30.00 in 10.0 mi WSW 13.8 mph - N/A   Clear
3:15 PM 60.8 °F - 53.6 °F 77% 30.00 in 10.0 mi West 11.5 mph 16.1 mph N/A   Clear
3:35 PM 60.8 °F - 53.6 °F 77% 30.00 in 10.0 mi West 12.7 mph - N/A   Clear
3:55 PM 59.0 °F - 51.8 °F 77% 30.00 in 10.0 mi West 10.4 mph 16.1 mph N/A   Clear
4:15 PM 59.0 °F - 51.8 °F 77% 29.99 in 10.0 mi West 10.4 mph - N/A   Clear
4:35 PM 57.2 °F - 51.8 °F 82% 30.00 in 10.0 mi West 9.2 mph - N/A   Clear
4:55 PM 57.2 °F - 51.8 °F 82% 30.00 in 9.0 mi West 9.2 mph - N/A   Clear
5:15 PM 55.4 °F - 50.0 °F 82% 30.00 in 10.0 mi West 5.8 mph - N/A   Scattered Clouds
5:35 PM 55.4 °F - 51.8 °F 88% 30.01 in 10.0 mi West 10.4 mph - N/A   Overcast
5:55 PM 55.4 °F - 51.8 °F 88% 30.01 in 10.0 mi West 6.9 mph - N/A   Overcast
6:15 PM 55.4 °F - 50.0 °F 82% 30.01 in 10.0 mi WNW 5.8 mph - N/A   Overcast
6:35 PM 55.4 °F - 50.0 °F 82% 30.01 in 10.0 mi West 4.6 mph - N/A   Overcast
6:55 PM 57.2 °F - 50.0 °F 77% 30.01 in 10.0 mi West 4.6 mph - N/A   Overcast
7:15 PM 57.2 °F - 50.0 °F 77% 30.01 in 10.0 mi WNW 6.9 mph - N/A   Overcast
7:35 PM 57.2 °F - 51.8 °F 82% 30.01 in 10.0 mi WNW 4.6 mph - N/A   Overcast
7:55 PM 57.2 °F - 50.0 °F 77% 29.99 in 10.0 mi West 4.6 mph - N/A   Overcast
8:15 PM 57.2 °F - 50.0 °F 77% 29.99 in 10.0 mi West 5.8 mph - N/A   Overcast
8:35 PM 57.2 °F - 50.0 °F 77% 29.98 in 10.0 mi NW 3.5 mph - N/A   Overcast
8:55 PM 57.2 °F - 50.0 °F 77% 29.98 in 10.0 mi West 4.6 mph - N/A   Overcast
9:15 PM 57.2 °F - 50.0 °F 77% 29.99 in 10.0 mi West 4.6 mph - N/A   Overcast
9:35 PM 55.4 °F - 50.0 °F 82% 29.99 in 10.0 mi West 6.9 mph - N/A   Overcast
9:55 PM 55.4 °F - 50.0 °F 82% 29.99 in 10.0 mi WNW 6.9 mph - N/A   Overcast
10:15 PM 55.4 °F - 48.2 °F 77% 29.98 in 10.0 mi WNW 10.4 mph - N/A   Overcast
10:35 PM 55.4 °F - 48.2 °F 77% 29.98 in 10.0 mi WNW 4.6 mph - N/A   Overcast
10:55 PM 55.4 °F - 48.2 °F 77% 29.98 in 10.0 mi Calm Calm - N/A   Overcast
11:15 PM 55.4 °F - 48.2 °F 77% 29.99 in 10.0 mi WNW 5.8 mph - N/A   Overcast
11:35 PM 55.4 °F - 48.2 °F 77% 29.99 in 10.0 mi NW 3.5 mph - N/A   Overcast
11:55 PM 55.4 °F - 48.2 °F 77% 29.98 in 10.0 mi NW 3.5 mph - N/A   Overcast